Location: Caixon
(43.4106°N, 0.0273°E)
Time: 21:14:17
(UTC+00:00)

CZ-2C R/B - Pass Details

Date: 16 October 2021
Orbit: 784 x 871 km, 98.2° (Epoch: 07 December)

Event Time Altitude Azimuth Distance (km) Brightness Sun altitude
Rises 05:31:45 0° 171° (S) 3,346 6.0 -8.6°
Reaches altitude 10° 05:34:04 10° 174° (S) 2,430 5.2 -8.2°
Maximum altitude 05:39:27 71° 258° (WSW) 893 2.7 -7.2°
Drops below altitude 10° 05:45:01 10° 343° (NNW) 2,501 4.9 -6.2°
Sets 05:47:26 0° 345° (NNW) 3,451 5.7 -5.8°
